Boone, NC

3:06 PM EST on November 15, 2019 (GMT -0500)
Boone

Weather History for KTNB - September, 2019

Change the Weather History Date:

Wednesday, September 11, 2019

  Actual Average (WUND) Record (WUND)
Temperature  
Mean Temperature 74 °F -  
Max Temperature 86 °F - - (-1)
Min Temperature 62 °F - - (-1)
Cooling Degree Days 9    
Growing Degree Days 24 (Base 50)    
Moisture  
Dew Point 62 °F    
Average Humidity 77    
Maximum Humidity 100    
Minimum Humidity 34    
Precipitation  
Precipitation 0.00 in - - ()
Sea Level Pressure  
Sea Level Pressure 30.38 in    
Wind  
Wind Speed 1 mph (West)    
Max Wind Speed 10 mph    
Max Gust Speed -    
Visibility 6 miles    
Events Fog    
Averages and records for this station are not official NWS values.
T = Trace of Precipitation, MM = Missing Value Source: NWS Daily Summary

Daily Weather History Graph

Daily Weather History Graph

Search for Another Location

Airport or City:

Astronomy

Sep. 11, 2019 Rise Set
Actual Time 7:05 AM EDT 7:40 PM EDT
Civil Twilight 6:39 AM EDT 8:06 PM EDT
Nautical Twilight 6:09 AM EDT 8:36 PM EDT
Astronomical Twilight 5:38 AM EDT 9:07 PM EDT
Moon 6:46 PM EDT (9/11) 4:33 AM EDT (9/11)
Length of Visible Light 13h 26m
Length of Day
12h 34m
Waxing Gibbous, 94% of the Moon is Illuminated
Sep 11
Waxing Gibbous
Sep 14
Full
Sep 21
Last Quarter
Sep 28
New
Oct 5
First Quarter

Hourly Weather History & Observations

Time (EDT) Temp. Heat Index Dew Point Humidity Pressure Visibility Wind Dir Wind Speed Gust Speed Precip Events Conditions
12:15 AM 64.8 °F - 64.8 °F 100% 30.43 in 2.5 mi Calm Calm - N/A   Mist
12:35 AM 66.0 °F - 66.0 °F 100% 30.43 in 5.0 mi Calm Calm - N/A   Clear
12:55 AM 65.1 °F - 65.1 °F 100% 30.43 in 3.0 mi Calm Calm - N/A   Mist
1:15 AM 63.9 °F - 63.9 °F 100% 30.42 in 2.5 mi Calm Calm - N/A   Mist
1:35 AM 63.3 °F - 63.3 °F 100% 30.42 in 1.8 mi Calm Calm - N/A   Mist
1:55 AM 64.2 °F - 64.2 °F 100% 30.42 in 3.0 mi Calm Calm - N/A   Clear
2:15 AM 64.6 °F - 64.6 °F 100% 30.42 in 5.0 mi Calm Calm - N/A   Clear
2:35 AM 63.7 °F - 63.7 °F 100% 30.41 in 2.5 mi Calm Calm - N/A   Mist
2:55 AM 63.7 °F - 63.7 °F 100% 30.40 in 2.5 mi Calm Calm - N/A   Mist
3:15 AM 63.9 °F - 63.9 °F 100% 30.40 in 3.0 mi Calm Calm - N/A   Mist
3:35 AM 63.9 °F - 63.9 °F 100% 30.40 in 3.0 mi Calm Calm - N/A   Mist
3:55 AM 63.3 °F - 63.3 °F 100% 30.39 in 3.0 mi Calm Calm - N/A   Overcast
4:15 AM 63.1 °F - 63.1 °F 100% 30.39 in 1.8 mi Calm Calm - N/A   Overcast
4:35 AM 64.0 °F - 64.0 °F 100% 30.39 in 4.0 mi Calm Calm - N/A   Overcast
4:55 AM 63.7 °F - 63.7 °F 100% 30.39 in 2.5 mi Calm Calm - N/A   Overcast
5:15 AM 64.6 °F - 64.6 °F 100% 30.38 in 1.2 mi Calm Calm - N/A   Overcast
5:35 AM 64.2 °F - 64.2 °F 100% 30.39 in 0.5 mi Calm Calm - N/A Fog Fog
5:55 AM 64.6 °F - 64.6 °F 100% 30.39 in 1.8 mi Calm Calm - N/A   Overcast
6:15 AM 64.4 °F - 64.4 °F 100% 30.39 in 2.5 mi Calm Calm - N/A   Mostly Cloudy
6:35 AM 63.5 °F - 63.5 °F 100% 30.40 in 1.5 mi Calm Calm - N/A   Scattered Clouds
6:55 AM 63.9 °F - 63.9 °F 100% 30.41 in 0.5 mi Calm Calm - N/A Fog Fog
7:15 AM 63.9 °F - 63.9 °F 100% 30.41 in 0.2 mi Calm Calm - N/A Fog Fog
7:35 AM 63.9 °F - 63.9 °F 100% 30.42 in 1.2 mi Calm Calm - N/A   Overcast
7:55 AM 62.8 °F - 62.8 °F 100% 30.43 in 2.5 mi Calm Calm - N/A   Scattered Clouds
8:15 AM 64.0 °F - 64.0 °F 100% 30.43 in 3.0 mi Calm Calm - N/A   Clear
8:35 AM 66.4 °F - 66.4 °F 100% 30.43 in 4.0 mi Calm Calm - N/A   Clear
8:55 AM 68.5 °F - 66.6 °F 93% 30.43 in 4.0 mi Calm Calm - N/A   Clear
9:15 AM 71.4 °F - 64.9 °F 80% 30.43 in 3.0 mi Calm Calm - N/A   Haze
9:35 AM 74.1 °F - 63.5 °F 69% 30.44 in 3.0 mi Calm Calm - N/A   Haze
9:55 AM 75.2 °F - 62.6 °F 65% 30.44 in 7.0 mi WNW 10.4 mph - N/A   Clear
10:15 AM 75.7 °F - 62.6 °F 64% 30.44 in 7.0 mi West 10.4 mph - N/A   Clear
10:35 AM 76.3 °F - 62.6 °F 62% 30.43 in 7.0 mi West 9.2 mph - N/A   Clear
10:55 AM 77.4 °F - 62.6 °F 60% 30.43 in 7.0 mi West 8.1 mph - N/A   Clear
11:55 AM 81.1 °F 82.5 °F 63.3 °F 55% 30.41 in 7.0 mi WNW 9.2 mph - N/A   Clear
12:15 PM 81.5 °F 82.5 °F 62.4 °F 52% 30.41 in 10.0 mi Calm Calm - N/A   Scattered Clouds
12:35 PM 82.6 °F 83.2 °F 61.9 °F 49% 30.40 in 7.0 mi Calm Calm - N/A   Mostly Cloudy
12:55 PM 83.1 °F 83.2 °F 59.9 °F 45% 30.39 in 7.0 mi WNW 6.9 mph - N/A   Mostly Cloudy
1:15 PM 84.6 °F 84.4 °F 59.5 °F 43% 30.39 in 10.0 mi NW 6.9 mph - N/A   Scattered Clouds
1:35 PM 84.9 °F 83.4 °F 54.1 °F 35% 30.38 in 10.0 mi Calm Calm - N/A   Scattered Clouds
1:55 PM 85.8 °F 84.2 °F 54.7 °F 34% 30.38 in 10.0 mi WNW 9.2 mph - N/A   Mostly Cloudy
2:15 PM 84.0 °F 82.6 °F 53.2 °F 35% 30.37 in 10.0 mi Calm Calm - N/A   Scattered Clouds
2:35 PM 85.8 °F 86.6 °F 62.8 °F 46% 30.36 in 7.0 mi Calm Calm - N/A   Mostly Cloudy
2:55 PM 86.5 °F 86.5 °F 60.8 °F 42% 30.35 in 7.0 mi East 3.5 mph - N/A   Mostly Cloudy
3:15 PM 85.3 °F 83.6 °F 54.3 °F 34% 30.35 in 10.0 mi Calm Calm - N/A   Scattered Clouds
3:35 PM 83.8 °F 84.5 °F 62.1 °F 48% 30.35 in 10.0 mi South 6.9 mph - N/A   Scattered Clouds
4:15 PM 79.9 °F - 58.3 °F 48% 30.34 in 10.0 mi SSE 6.9 mph - N/A   Mostly Cloudy
4:35 PM 79.5 °F - 59.5 °F 50% 30.33 in 7.0 mi Calm Calm - N/A   Overcast
4:55 PM 79.5 °F - 63.5 °F 58% 30.33 in 7.0 mi Calm Calm - N/A   Overcast
5:15 PM 80.1 °F 82.0 °F 65.3 °F 61% 30.32 in 7.0 mi Calm Calm - N/A   Overcast
5:35 PM 80.2 °F 82.0 °F 64.9 °F 59% 30.31 in 7.0 mi Calm Calm - N/A   Mostly Cloudy
5:55 PM 83.3 °F 83.1 °F 58.5 °F 43% 30.31 in 10.0 mi Calm Calm - N/A   Scattered Clouds
6:15 PM 81.9 °F 81.6 °F 56.5 °F 42% 30.31 in 10.0 mi Calm Calm - N/A   Clear
6:35 PM 80.1 °F 80.7 °F 58.6 °F 48% 30.31 in 10.0 mi Calm Calm - N/A   Clear
6:55 PM 79.2 °F - 58.3 °F 49% 30.31 in 10.0 mi Calm Calm - N/A   Scattered Clouds
7:15 PM 77.9 °F - 57.9 °F 50% 30.31 in 10.0 mi Calm Calm - N/A   Scattered Clouds
7:35 PM 76.6 °F - 57.2 °F 51% 30.31 in 10.0 mi Calm Calm - N/A   Clear
7:55 PM 72.9 °F - 60.4 °F 65% 30.31 in 10.0 mi Calm Calm - N/A   Clear
8:15 PM 70.3 °F - 60.6 °F 71% 30.31 in 10.0 mi Calm Calm - N/A   Clear
8:35 PM 68.9 °F - 60.3 °F 74% 30.32 in 10.0 mi Calm Calm - N/A   Clear
8:55 PM 66.9 °F - 60.4 °F 80% 30.32 in 10.0 mi Calm Calm - N/A   Scattered Clouds
9:15 PM 67.3 °F - 60.8 °F 80% 30.33 in 10.0 mi Calm Calm - N/A   Scattered Clouds
9:35 PM 65.7 °F - 60.4 °F 83% 30.33 in 10.0 mi Calm Calm - N/A   Clear
9:55 PM 64.8 °F - 62.2 °F 92% 30.34 in 7.0 mi Calm Calm - N/A   Clear
10:15 PM 64.2 °F - 63.0 °F 96% 30.34 in 10.0 mi Calm Calm - N/A   Scattered Clouds
10:35 PM 64.8 °F - 63.0 °F 94% 30.34 in 10.0 mi Calm Calm - N/A   Clear
10:55 PM 63.9 °F - 63.3 °F 98% 30.34 in 7.0 mi Calm Calm - N/A   Clear
11:15 PM 64.0 °F - 63.5 °F 98% 30.34 in 7.0 mi Calm Calm - N/A   Clear
11:35 PM 64.4 °F - 63.1 °F 96% 30.33 in 7.0 mi Calm Calm - N/A   Clear
11:55 PM 63.0 °F - 62.8 °F 99% 30.33 in 7.0 mi Calm Calm - N/A   Clear